Regional Weather Roundup
Issued by NWS

Home | Current Version | Previous Version | Graphics & Text | Print | Product List | Glossary On
Versions: 1 2 3 4 5 6 7 8 9 10 11 12 13 14 15 16 17 18 19 20 21 22 23 24 25 26 27
000
ASUS45 KBOU 220807
RWRCO

WEATHER ROUNDUP FOR COLORADO
NATIONAL WEATHER SERVICE DENVER/BOULDER CO
200 AM MDT THU JUN 22 2017

NOTE: "FAIR" INDICATES FEW OR NO CLOUDS BELOW 12000 FEET WITH NO
SIGNIFICANT WEATHER AND/OR OBSTRUCTIONS TO VISIBILITY.

COZ001>005-013-030-031-220900-
...NORTHWEST COLORADO...

CITY           SKY/WX    TMP DP  RH WIND       PRES   REMARKS
CRAIG          MOCLDY    57  46  66 W21G26    30.15R THUNDER
HAYDEN         FAIR      55  39  54 E7        30.10R
MEEKER         FAIR      64  43  46 E13       30.08F
RABBIT EARS PA FAIR      54  32  43 W8        30.39F
STEAMBOAT SPGS FAIR      53  42  66 CALM      30.11F
WALDEN         FAIR      46  37  71 SE9       30.20F
$$

COZ006>008-011-220900-
...WEST CENTRAL VALLEYS...

CITY           SKY/WX    TMP DP  RH WIND       PRES   REMARKS
GRAND JUNCTION FAIR      78  37  22 E7        29.92R
MONTROSE       FAIR      69  38  32 SE10      30.02S
EAGLE          FAIR      58  38  47 SE3       30.14S
RIFLE          FAIR      65  42  43 S10       30.03R
DELTA          FAIR      71  35  27 CALM      29.98S
NUCLA          FAIR      70  32  24 SE5       30.05S
$$

COZ017>023-064>068-220900-
...SOUTHWEST COLORADO...

CITY           SKY/WX    TMP DP  RH WIND       PRES   REMARKS
DURANGO        FAIR      57  35  43 E5        30.10S
CORTEZ         FAIR      54  42  64 CALM      30.03R
PAGOSA SPRINGS FAIR      55  34  45 CALM      30.19F
TELLURIDE      FAIR      59  32  36 SE10      30.33F
WOLF CREEK PAS FAIR      54  28  37 CALM      30.60F
$$

COZ009-010-012-014-032>034-037-058>063-220900-
...CENTRAL COLORADO...

CITY           SKY/WX    TMP DP  RH WIND       PRES   REMARKS
ASPEN          FAIR      56  36  47 SW9       30.19F
BUENA VISTA    FAIR      55  32  42 NW6       30.24S
COPPER MTN     FAIR      55  27  33 W12       30.53F
BERTHOUD PASS  FAIR      46  36  66 NW22G31   30.54F
COTTONWOOD PAS FAIR      64  23  20 SW9       30.37F
GUNNISON       FAIR      57  38  48 VRB3      30.23S
KREMMLING      NOT AVBL
LEADVILLE      FAIR      44  29  55 CALM      30.36F
MONARCH PASS   FAIR      54  27  35 W8        30.65F
SALIDA         FAIR      60  32  34 W7        30.27S
SUNLIGHT       FAIR      57  27  30 S3        30.46S
WILKERSON PASS FAIR      54  27  35 SW5       30.52S
$$

COZ069>075-220900-
...SAN LUIS VALLEY/SANGRE DE CRISTO MOUNTAINS...

CITY           SKY/WX    TMP DP  RH WIND       PRES   REMARKS
ALAMOSA        FAIR      55  43  63 S5        30.18F
DEL NORTE      FAIR      61  32  33 SW10      30.23S
LA VETA PASS   FAIR      61  32  33 MISG      30.51F
SAGUACHE       FAIR      61  30  31 NW7       30.22S
$$

COZ035-036-038>040-220900-
...NORTHERN COLORADO FRONT RANGE...

CITY           SKY/WX    TMP DP  RH WIND       PRES   REMARKS
DENVER INTL AP FAIR      73  38  27 S14       29.93F
DMNS CITY PARK   N/A     72  41  31 S6        29.93F
AURORA         PTCLDY    67  40  37 S9        29.96F
FRONT RANGE AP FAIR      73  37  27 SW14      29.95F
ERIE MUNI ARPT FAIR      73  37  27 S6        29.90F
BOULDER MUN AP FAIR      79  36  21 W8        29.91F
CENTENNIAL     FAIR      68  39  34 S9        29.98F
BROOMFIELD     FAIR      75  37  25 S3        29.95F
FORT COLLINS   FAIR      73  43  33 SW5       29.89S
LONGMONT       FAIR      72  40  30 NW8       29.91F
$$

COZ041-046-047-076>085-087-088-220900-
...PIKES PEAK/PALMER DIVIDE AND SOUTHERN FOOTHILLS...

CITY           SKY/WX    TMP DP  RH WIND       PRES   REMARKS
COLO. SPRINGS  FAIR      66  40  38 NW5       30.04F
A. F. ACADEMY  FAIR      57  41  54 N7        30.06F
SCHRIEVER AFB  NOT AVBL
CHEYENNE MTN   NOT AVBL
ELLICOTT       FAIR     N/A N/A N/A N3        30.02F
FALCON           N/A     65  33  29 W14       30.10F
FORT CARSON    FAIR      67  38  34 NW10      30.00F
LIMON          FAIR      61  40  45 CALM      29.95F
MONUMENT HILL  FAIR      63  36  36 SW8       30.11F
CANON CITY     CLEAR     72  41  33 W12       29.97F
WALSENBURG     FAIR      66  41  39 SW13      30.03F
TRINIDAD       FAIR      70  42  36 SW12      30.03F
$$

COZ042>045-048>051-090-091-220900-
...NORTHEAST COLORADO...

CITY           SKY/WX    TMP DP  RH WIND       PRES   REMARKS
GREELEY ARPT   FAIR      63  50  62 E3        29.87F HAZE
AKRON          FAIR      75  38  26 SE6       29.86F
BURLINGTON     FAIR      72  54  53 S17G24    29.87S
WRAY           FAIR      64  48  55 SW9       29.81S
YUMA           NOT AVBL
STERLING       FAIR      64  50  59 CALM      29.80S
HOLYOKE        NOT AVBL
FORT MORGAN    FAIR      65  41  42 SW7       29.86F
$$

COZ086-089-092>099-220900-
...SOUTHEAST COLORADO...

CITY           SKY/WX    TMP DP  RH WIND       PRES   REMARKS
PUEBLO         FAIR      64  48  56 W8        29.91F
LA JUNTA       FAIR      76  50  40 SW14      29.90F
LAMAR          FAIR      77  52  41 S22G30    29.85S
SPRINGFIELD      N/A     65  59  81 SW18G28   29.97F
$$




USA.gov is the U.S. government's official web portal to all federal, state and local government web resources and services.